[[{"header":{"parameterUnit":"m.s-1","parameterCategory":1,"la1":30.2991,"la2":30.254,"lo1":-89.0895,"lo2":-89.0444,"dy":0.0017,"dx":0.0017,"nx":28,"ny":28,"refTime":"2024-04-11T21:00:00:Z","depth":0,"parameterNumber":2,"parameterNumberName":"U-component_of_WINDS"},"data":[0,0,0,0,0,0,0,0,0,0,0,0,0,0,0,0,0,0,0,0,0,0,0,0,0,0,0,0,0,0,0,0,0,0,0,0,0,0,0,0,0,0,0,0,0,0,0,0,0,0,0,0,0,0,0,0,0,0,2.6052,2.6053,0,2.6087,2.6087,2.6088,2.6047,2.6046,2.6044,2.6043,2.6078,2.608,2.6082,0,0,0,0,0,0,0,0,0,0,0,0,0,2.5951,2.5953,2.6052,2.6053,2.6053,2.6087,2.6087,2.6088,2.6048,2.6046,2.6044,2.6042,2.6077,2.608,2.6082,0,0,0,0,0,0,0,0,0,0,0,0,0,2.5991,2.5954,2.6052,2.6037,2.6036,2.6087,2.6087,2.6088,2.6048,2.6046,2.6044,2.6041,2.6076,2.6079,2.6083,2.615,0,0,2.6094,2.6095,0,0,0,0,0,0,0,0,2.5989,2.5995,2.6039,2.6038,2.6037,2.6061,2.6064,2.6109,2.6049,2.6044,2.6043,2.604,2.6074,2.6077,2.6089,2.6151,2.6153,2.6094,2.6096,2.6097,2.6098,0,0,0,0,0,0,0,2.5986,2.5993,2.6066,2.604,2.6039,2.6029,2.6032,2.6072,2.6071,2.6044,2.6041,2.6046,2.6073,2.6085,2.6089,2.6153,2.6094,2.6097,2.6099,2.61,2.6272,2.6274,0,0,0,0,0,0,2.5985,2.5991,2.6065,2.6067,2.6007,2.6032,2.6036,2.6055,2.607,2.607,2.6048,2.6044,2.6081,2.6085,2.609,2.6169,2.6097,2.6101,2.6103,2.627,2.6273,2.6275,0,0,0,0,0,0,2.5983,2.5992,2.6063,2.6028,2.6037,2.6036,2.6059,2.6057,2.607,2.6073,2.6073,2.6061,2.6079,2.6085,2.6135,2.617,2.6102,2.6105,2.6267,2.6271,2.6274,2.6327,0,0,0,0,0,0,2.5981,2.5992,2.6017,2.6029,2.6039,2.6108,2.6061,2.606,2.6076,2.6071,2.6085,2.6086,2.6078,2.613,2.6139,2.6173,2.6108,2.6264,2.6268,2.6273,2.6322,2.6332,2.6341,0,0,0,0,0,2.5977,2.6031,2.6019,2.6028,2.607,2.611,2.6115,2.6105,2.6079,2.6104,2.6107,2.6085,2.6165,2.6136,2.6145,2.6181,2.6261,2.6267,2.6272,2.6318,2.633,2.6341,0,0,0,0,0,0,2.6022,2.6032,2.6019,2.6078,2.6093,2.6103,2.6135,2.6119,2.6142,2.6136,2.6123,2.6127,2.618,2.6185,2.6153,2.6246,2.6209,2.6216,2.624,2.6252,2.6261,2.6258,2.6111,0,0,0,0,0,2.6039,2.6071,2.6077,2.6129,2.6137,2.6135,2.6152,2.6143,2.6158,2.6165,2.6171,2.6186,2.6215,2.6234,2.626,2.6324,2.6326,2.6353,2.6362,2.637,2.6376,2.641,2.6422,2.6294,2.6293,2.6293,0,0,2.6074,2.6083,2.6104,2.6138,2.6149,2.6182,2.6141,2.6177,2.6201,2.617,2.6217,2.6223,2.6239,2.6296,2.6321,2.6302,2.6413,2.6377,2.6383,2.6385,2.6417,2.6429,2.644,2.6297,2.6297,2.6296,0,0,2.6154,2.6165,2.6209,2.6221,2.6238,2.6236,2.6247,2.626,2.6262,2.6309,2.6287,2.6315,2.6365,2.6378,2.6391,2.6477,2.6458,2.6486,2.6534,2.6567,2.6577,2.6586,2.6616,2.6627,2.6493,2.6493,2.6493,0,2.6195,2.6244,2.6233,2.6271,2.6287,2.6261,2.6305,2.6318,2.6343,2.6354,2.6333,2.6395,2.6404,2.6464,2.6485,2.6496,2.6508,2.6484,2.6576,2.6585,2.6593,2.6622,2.6633,2.6496,2.6496,2.6495,2.6495,0,2.6293,2.6327,2.6361,2.6386,2.6406,2.6447,2.6442,2.6463,2.6453,2.6454,2.6502,2.6513,2.6541,2.6555,2.6545,2.6613,2.6601,2.6578,2.654,2.6609,2.6636,2.6646,2.6501,2.6499,2.6499,2.6498,0,0,2.6402,2.6421,2.6434,2.6445,2.6463,2.6489,2.6529,2.6557,2.6575,2.6594,2.6626,2.667,2.6649,2.6664,2.6656,2.6685,2.6752,2.6659,2.6659,2.6675,2.6827,2.6843,2.6856,2.674,2.6742,2.6744,2.6825,0,2.6482,2.6551,2.6543,2.6609,2.664,2.6617,2.6652,2.6667,2.6668,2.6695,2.6697,2.6727,2.6698,2.6707,2.6735,2.6738,2.6782,2.6732,2.677,2.6771,2.6765,2.687,2.6887,2.6963,2.6836,2.6837,2.6839,0,2.6584,2.6607,2.6676,2.6689,2.6702,2.6733,2.6758,2.6785,2.6801,2.68,2.6817,2.6804,2.6844,2.6806,2.6861,2.6827,2.6842,2.6846,2.6849,2.6851,2.6808,2.6874,2.6987,2.6998,2.6855,2.6854,2.6853,0,2.6655,2.6703,2.6751,2.6761,2.6778,2.6801,2.6809,2.6823,2.684,2.6862,2.6874,2.69,2.6914,2.6935,2.6929,2.6902,2.6986,2.6947,2.6986,2.6986,2.7003,2.7002,2.712,2.7015,2.7015,2.7015,2.7014,0,2.6745,2.6788,2.6783,2.6812,2.686,2.6851,2.6898,2.6903,2.6916,2.6946,2.6928,2.6956,2.6947,2.6975,2.6971,2.7017,2.7024,2.7024,2.7022,2.7025,2.7025,2.7034,2.7028,2.7018,2.7017,2.7016,2.7016,0,2.6832,2.683,2.688,2.6893,2.6897,2.6931,2.6942,2.6969,2.697,2.7008,2.7016,2.7017,2.7049,2.7046,2.7082,2.7079,2.7136,2.7128,2.713,2.7128,2.7167,2.7163,2.7293,2.731,2.7195,2.7197,2.7197,0,2.6888,2.6921,2.6937,2.6956,2.6965,2.6996,2.7014,2.7006,2.7025,2.7047,2.7072,2.7102,2.7126,2.7178,2.7182,2.7209,2.7202,2.7246,2.7205,2.7207,2.7201,2.7199,2.7202,2.7253,2.7254,2.7255,2.7256,0,2.6989,2.6987,2.7013,2.704,2.7062,2.7082,2.7101,2.7117,2.7111,2.7134,2.7167,2.7185,2.7222,2.7252,2.7278,2.7286,2.727,2.7269,2.7279,2.7282,2.7281,2.7281,2.7151,2.7266,2.7265,2.7264,2.7264,2.7263,2.7062,2.709,2.7105,2.7136,2.7149,2.7167,2.7193,2.7198,2.7225,2.7254,2.7248,2.7285,2.7301,2.7334,2.7345,2.7374,2.7358,2.7373,2.7376,2.738,2.7384,2.7278,2.7378,2.7378,2.7378,2.7378,2.7377,0,2.7161,2.717,2.7198,2.7224,2.7248,2.7232,2.7252,2.7273,2.7305,2.7322,2.7346,2.7383,2.7413,2.742,2.7448,2.7469,2.7463,2.7477,2.7474,2.7477,2.7397,2.7385,2.7482,2.7482,2.7482,2.7482,2.7482,2.7482,2.7215,2.7261,2.7261,2.7314,2.7322,2.7358,2.7371,2.7388,2.7401,2.7443,2.7468,2.7472,2.7485,2.7514,2.754,2.7541,2.7552,2.7569,2.7567,2.7493,2.7482,2.7472,2.7461,2.7572,2.7572,2.7645,2.7645,2.7646]},{"header":{"parameterUnit":"m.s-1","parameterCategory":1,"la1":30.2991,"la2":30.254,"lo1":-89.0895,"lo2":-89.0444,"dy":0.0017,"dx":0.0017,"nx":28,"ny":28,"refTime":"2024-04-11T21:00:00:Z","depth":0,"parameterNumber":3,"parameterNumberName":"V-component_of_WINDS"},"data":[0,0,0,0,0,0,0,0,0,0,0,0,0,0,0,0,0,0,0,0,0,0,0,0,0,0,0,0,0,0,0,0,0,0,0,0,0,0,0,0,0,0,0,0,0,0,0,0,0,0,0,0,0,0,0,0,0,0,-3.4478,-3.448,0,-3.464,-3.4642,-3.4644,-3.4607,-3.4604,-3.4601,-3.4598,-3.4765,-3.4773,-3.478,0,0,0,0,0,0,0,0,0,0,0,0,0,-3.4138,-3.4144,-3.4478,-3.448,-3.4482,-3.464,-3.4642,-3.4644,-3.4608,-3.4604,-3.46,-3.4597,-3.4763,-3.4772,-3.478,0,0,0,0,0,0,0,0,0,0,0,0,0,-3.4292,-3.4147,-3.4477,-3.4482,-3.4485,-3.4639,-3.4642,-3.4645,-3.4608,-3.4604,-3.4599,-3.4595,-3.476,-3.4771,-3.4782,-3.4942,0,0,-3.4815,-3.482,0,0,0,0,0,0,0,0,-3.4283,-3.4304,-3.448,-3.4482,-3.4485,-3.4599,-3.4584,-3.4744,-3.4609,-3.4561,-3.4598,-3.4593,-3.4714,-3.4728,-3.4769,-3.495,-3.4957,-3.4816,-3.4823,-3.4828,-3.4831,0,0,0,0,0,0,0,-3.4272,-3.4297,-3.4542,-3.4482,-3.4486,-3.4477,-3.4494,-3.4614,-3.4662,-3.4565,-3.4563,-3.4583,-3.4714,-3.4758,-3.4772,-3.4959,-3.4816,-3.4826,-3.4832,-3.4837,-3.5281,-3.5286,0,0,0,0,0,0,-3.4259,-3.4288,-3.4537,-3.4547,-3.437,-3.4487,-3.4506,-3.4567,-3.466,-3.467,-3.4586,-3.458,-3.4742,-3.476,-3.4778,-3.4973,-3.4827,-3.4838,-3.4844,-3.5276,-3.5282,-3.5288,0,0,0,0,0,0,-3.4252,-3.4282,-3.453,-3.4417,-3.4448,-3.4498,-3.4567,-3.4572,-3.4616,-3.4676,-3.4684,-3.4623,-3.4739,-3.4763,-3.4902,-3.4978,-3.4843,-3.4853,-3.527,-3.5278,-3.5285,-3.5363,0,0,0,0,0,0,-3.4242,-3.4279,-3.434,-3.4419,-3.4454,-3.4651,-3.4571,-3.4579,-3.4635,-3.4629,-3.4712,-3.4722,-3.4737,-3.4885,-3.4913,-3.4991,-3.4861,-3.5263,-3.5273,-3.5282,-3.5354,-3.5372,-3.5388,0,0,0,0,0,-3.423,-3.4356,-3.4343,-3.4374,-3.4531,-3.4655,-3.4676,-3.469,-3.4642,-3.4704,-3.4742,-3.4719,-3.4965,-3.49,-3.493,-3.5013,-3.5258,-3.527,-3.5282,-3.5346,-3.5369,-3.5388,0,0,0,0,0,0,-3.4285,-3.4366,-3.4353,-3.4508,-3.4575,-3.4649,-3.4727,-3.4714,-3.4797,-3.4787,-3.4803,-3.4822,-3.4964,-3.5002,-3.4928,-3.5173,-3.5105,-3.5123,-3.5143,-3.5165,-3.5182,-3.5171,-3.487,0,0,0,0,0,-3.4315,-3.4408,-3.4474,-3.4604,-3.4638,-3.4677,-3.4732,-3.4737,-3.4808,-3.4836,-3.4884,-3.4954,-3.5047,-3.5108,-3.5197,-3.5359,-3.5377,-3.5431,-3.5448,-3.5462,-3.5478,-3.5567,-3.5592,-3.5326,-3.5326,-3.5326,0,0,-3.4378,-3.4434,-3.4492,-3.4616,-3.4669,-3.4766,-3.4701,-3.4806,-3.4879,-3.4852,-3.4986,-3.5025,-3.5103,-3.5255,-3.5324,-3.5291,-3.5555,-3.5477,-3.5487,-3.5496,-3.5582,-3.5607,-3.563,-3.5334,-3.5333,-3.5332,0,0,-3.4543,-3.4594,-3.4708,-3.4762,-3.4843,-3.4868,-3.4895,-3.4972,-3.4996,-3.5131,-3.5113,-3.52,-3.536,-3.5417,-3.5467,-3.5654,-3.5636,-3.5683,-3.5773,-3.5861,-3.5882,-3.59,-3.5968,-3.5992,-3.5698,-3.5698,-3.5698,0,-3.4611,-3.4756,-3.4768,-3.4876,-3.4932,-3.4912,-3.5028,-3.508,-3.5186,-3.5225,-3.5187,-3.5388,-3.5439,-3.5604,-3.565,-3.5691,-3.5724,-3.5673,-3.5877,-3.5896,-3.5914,-3.5979,-3.6004,-3.5703,-3.5703,-3.5702,-3.5702,0,-3.4836,-3.4937,-3.502,-3.5123,-3.5188,-3.5299,-3.5329,-3.5394,-3.5394,-3.5424,-3.5562,-3.5623,-3.5725,-3.5764,-3.5765,-3.593,-3.5907,-3.5873,-3.5805,-3.5944,-3.6006,-3.6031,-3.5711,-3.5709,-3.5707,-3.5706,0,0,-3.504,-3.5148,-3.5179,-3.5226,-3.5313,-3.5392,-3.5503,-3.5602,-3.5657,-3.5731,-3.5825,-3.5961,-3.5931,-3.5987,-3.5995,-3.6071,-3.6217,-3.6028,-3.603,-3.6062,-3.6404,-3.643,-3.6458,-3.6206,-3.6211,-3.6214,-3.6398,0,-3.5213,-3.5408,-3.5423,-3.5599,-3.5693,-3.5676,-3.5773,-3.5838,-3.5868,-3.5953,-3.5987,-3.6084,-3.6035,-3.607,-3.6144,-3.6184,-3.6286,-3.6171,-3.6295,-3.6299,-3.6276,-3.649,-3.6518,-3.6688,-3.6422,-3.6426,-3.6429,0,-3.5441,-3.5522,-3.5707,-3.5783,-3.5823,-3.591,-3.6002,-3.6083,-3.6157,-3.6174,-3.6238,-3.6235,-3.635,-3.6277,-3.6436,-3.6357,-3.6408,-3.6436,-3.6443,-3.6455,-3.6373,-3.651,-3.6742,-3.6768,-3.6466,-3.6463,-3.6461,0,-3.5573,-3.5728,-3.5859,-3.5899,-3.599,-3.6052,-3.6093,-3.6161,-3.622,-3.6302,-3.634,-3.6434,-3.6485,-3.6558,-3.6581,-3.6525,-3.674,-3.6668,-3.6758,-3.6758,-3.6805,-3.6802,-3.705,-3.6837,-3.6836,-3.6836,-3.6835,0,-3.5765,-3.588,-3.5919,-3.6,-3.6128,-3.6145,-3.6271,-3.6309,-3.637,-3.6459,-3.6449,-3.6533,-3.6558,-3.6646,-3.6665,-3.6794,-3.6817,-3.6835,-3.6839,-3.6837,-3.6835,-3.6872,-3.6861,-3.6843,-3.6841,-3.684,-3.6839,0,-3.5934,-3.5965,-3.6107,-3.6181,-3.6203,-3.6294,-3.6358,-3.6437,-3.6466,-3.6578,-3.6606,-3.6652,-3.6755,-3.6785,-3.6909,-3.6922,-3.7075,-3.7067,-3.705,-3.705,-3.7139,-3.7131,-3.7421,-3.746,-3.722,-3.7222,-3.7224,0,-3.6055,-3.6143,-3.6227,-3.6285,-3.6329,-3.6423,-3.6483,-3.6503,-3.6566,-3.6657,-3.6725,-3.6827,-3.6909,-3.7076,-3.7121,-3.7216,-3.7212,-3.7306,-3.7226,-3.7221,-3.7215,-3.721,-3.7219,-3.7322,-3.7324,-3.7326,-3.7328,0,-3.6267,-3.6278,-3.6365,-3.6458,-3.653,-3.6604,-3.6675,-3.6724,-3.6754,-3.6826,-3.6931,-3.6996,-3.7123,-3.7225,-3.7321,-3.7364,-3.7353,-3.7353,-3.7379,-3.7378,-3.7365,-3.7375,-3.7093,-3.7347,-3.7345,-3.7343,-3.7342,-3.7342,-3.6417,-3.6494,-3.6566,-3.6663,-3.6719,-3.6786,-3.6864,-3.6903,-3.6991,-3.7096,-3.7102,-3.7217,-3.7289,-3.7418,-3.7466,-3.7556,-3.7529,-3.7566,-3.7576,-3.7585,-3.7593,-3.735,-3.7574,-3.7573,-3.7573,-3.7573,-3.7572,0,-3.663,-3.6675,-3.6764,-3.6864,-3.6941,-3.6922,-3.7001,-3.7067,-3.7167,-3.7236,-3.7317,-3.7439,-3.7538,-3.7591,-3.769,-3.7753,-3.775,-3.7778,-3.7774,-3.7785,-3.7612,-3.758,-3.7779,-3.7779,-3.7779,-3.7779,-3.7779,-3.7779,-3.675,-3.688,-3.69,-3.7059,-3.7103,-3.7215,-3.7262,-3.7324,-3.7379,-3.7515,-3.7597,-3.7631,-3.7694,-3.7797,-3.7888,-3.7901,-3.7938,-3.797,-3.798,-3.7818,-3.7797,-3.7777,-3.7747,-3.7978,-3.7978,-3.8146,-3.8147,-3.8149]}]]